False Pass, AK

7:23 PM HDT on September 19, 2017 (GMT -0900)
False Pass

Weather History for PAKF - December, 2012

Change the Weather History Date:

Tuesday, December 11, 2012

  Actual Average (PACD) Record (PACD)
Temperature  
Mean Temperature 47 °F -  
Max Temperature 57 °F 34 °F 54 °F (1990)
Min Temperature 37 °F 26 °F 8 °F (1976)
Degree Days  
Heating Degree Days 18    
Moisture  
Dew Point 40 °F    
Average Humidity 82    
Maximum Humidity 93    
Minimum Humidity 53    
Precipitation  
Precipitation 0.18 in - - ()
Sea Level Pressure  
Sea Level Pressure 29.94 in    
Wind  
Wind Speed 26 mph (SSE)    
Max Wind Speed 38 mph    
Max Gust Speed 61 mph    
Visibility 6 miles    
Events Rain    
Averages and records for this station are not official NWS values.
T = Trace of Precipitation, MM = Missing Value Source: NWS Daily Summary

Daily Weather History Graph

Daily Weather History Graph

Search for Another Location

Airport or City:

Trip Planner

Search our weather history database for the weather conditions in past years. The results will help you decide how hot, cold, wet, or windy it might be!

Date:

Astronomy

Dec. 11, 2012 Rise Set
Actual Time 9:08 AM HST 4:26 PM HST
Civil Twilight 8:23 AM HST 5:11 PM HST
Nautical Twilight 7:36 AM HST 5:58 PM HST
Astronomical Twilight 6:52 AM HST 6:42 PM HST
Moon 7:09 AM HST (12/11) 3:22 PM HST (12/11)
Length of Visible Light 8h 47m
Length of Day
7h 17m
Waning Crescent, 3% of the Moon is Illuminated
Dec 11
Waning Crescent
Dec 12
New
Dec 19
First Quarter
Dec 28
Full
Jan 4
Last Quarter

Hourly Weather History & Observations

Time (HST) Temp. Windchill Dew Point Humidity Pressure Visibility Wind Dir Wind Speed Gust Speed Precip Events Conditions
12:01 AM 37.9 °F 26.8 °F 35.1 °F 89% 30.30 in 8.0 mi South 24.2 mph 31.1 mph 0.01 in Rain Light Rain
1:01 AM 44.1 °F 35.2 °F 37.9 °F 79% 30.24 in 10.0 mi SSE 23.0 mph 46.0 mph 0.01 in Rain Light Rain
1:33 AM 46.4 °F 38.5 °F 37.4 °F 71% 29.91 in 10.0 mi South 21.9 mph 35.7 mph 0.00 in   Overcast
3:01 AM 48.9 °F - 39.9 °F 71% 30.15 in 10.0 mi SSE 34.5 mph 46.0 mph N/A   Overcast
4:01 AM 46.9 °F - 39.9 °F 77% 30.16 in 10.0 mi SSE 24.2 mph 39.1 mph 0.00 in Rain Light Rain
5:01 AM 48.9 °F - 41.0 °F 74% 30.16 in 10.0 mi SSE 25.3 mph 34.5 mph 0.00 in   Overcast
6:01 AM 57.0 °F - 39.9 °F 53% 30.17 in 10.0 mi SE 23.0 mph 40.3 mph 0.00 in   Overcast
7:01 AM 54.0 °F - 41.0 °F 62% 30.16 in 10.0 mi South 33.4 mph 48.3 mph 0.00 in Rain Light Rain
8:01 AM 46.0 °F 35.8 °F 41.0 °F 83% 30.21 in 10.0 mi SE 36.8 mph 46.0 mph 0.01 in Rain Light Rain
8:54 AM 44.6 °F 35.3 °F 41.0 °F 87% 29.91 in 4.0 mi SSE 26.5 mph 41.4 mph 0.00 in Rain Light Rain
9:01 AM 45.0 °F 35.1 °F 41.0 °F 86% 30.20 in 3.0 mi SSE 31.1 mph 42.6 mph 0.00 in Rain Light Rain
9:06 AM 44.6 °F 35.7 °F 41.0 °F 87% 29.92 in 3.0 mi SSE 24.2 mph 42.6 mph 0.00 in Rain Light Rain
9:13 AM 44.6 °F 35.5 °F 41.0 °F 87% 29.91 in 3.0 mi SSE 25.3 mph 40.3 mph 0.00 in Rain Light Rain
9:17 AM 44.6 °F 35.3 °F 41.0 °F 87% 29.90 in 3.0 mi SSE 26.5 mph 40.3 mph 0.00 in Rain Light Rain
9:32 AM 44.6 °F 33.9 °F 39.2 °F 81% 29.90 in 3.0 mi SSE 35.7 mph 51.8 mph 0.00 in Rain Light Rain
9:41 AM 44.6 °F 34.1 °F 39.2 °F 81% 29.89 in 2.5 mi SSE 34.5 mph 43.7 mph 0.00 in Rain Light Rain
9:49 AM 44.6 °F 34.4 °F 39.2 °F 81% 29.88 in 3.0 mi SSE 32.2 mph 46.0 mph 0.00 in Rain Light Rain
10:01 AM 46.0 °F 36.4 °F 39.9 °F 79% 30.13 in 5.0 mi SSE 32.2 mph 51.8 mph 0.01 in Rain Light Rain
10:23 AM 46.4 °F 36.1 °F 39.2 °F 76% 29.85 in 10.0 mi SSE 38.0 mph 51.8 mph 0.00 in Rain Light Rain
10:59 AM 44.6 °F 33.8 °F 41.0 °F 87% 29.88 in 3.0 mi SSE 36.8 mph 46.0 mph 0.01 in Rain Light Rain
11:01 AM 44.6 °F 33.9 °F 41.0 °F 87% 29.89 in 2.5 mi SSE 35.7 mph 46.0 mph 0.01 in Rain Light Rain
12:01 PM 44.1 °F 35.4 °F 41.0 °F 89% 30.15 in 2.0 mi SSE 21.9 mph 33.4 mph 0.02 in Rain Light Rain
12:29 PM 42.8 °F 32.7 °F 41.0 °F 93% 29.86 in 2.5 mi SE 27.6 mph 34.5 mph 0.01 in Rain Light Rain
12:35 PM 42.8 °F 33.5 °F 41.0 °F 93% 29.86 in 3.0 mi SE 23.0 mph 35.7 mph 0.01 in Rain Light Rain
12:42 PM 42.8 °F 32.9 °F 41.0 °F 93% 29.85 in 2.5 mi SE 26.5 mph 41.4 mph 0.01 in Rain Light Rain
1:01 PM 42.8 °F 33.3 °F 41.0 °F 93% 29.84 in 3.0 mi ESE 24.2 mph 39.1 mph 0.01 in Rain Light Rain
2:01 PM 43.0 °F 35.4 °F 41.0 °F 93% 30.05 in 8.0 mi East 16.1 mph 29.9 mph 0.02 in Rain Light Rain
2:09 PM 42.8 °F 33.3 °F 41.0 °F 93% 29.77 in 6.0 mi East 24.2 mph 39.1 mph 0.00 in Rain Light Rain
2:23 PM 42.8 °F 34.3 °F 41.0 °F 93% 29.77 in 6.0 mi ESE 19.6 mph 38.0 mph 0.01 in Rain Light Rain
3:01 PM 44.6 °F 34.9 °F 41.0 °F 87% 29.70 in 5.0 mi SE 28.8 mph 36.8 mph 0.01 in Rain Light Rain
3:32 PM 46.4 °F 40.4 °F 42.8 °F 87% 29.66 in 10.0 mi SE 13.8 mph 36.8 mph 0.01 in Rain Light Rain
4:01 PM 48.0 °F - 42.1 °F 80% 29.89 in 8.0 mi SSE 21.9 mph 52.9 mph 0.01 in Rain Light Rain
5:01 PM 46.9 °F - 41.0 °F 80% 29.85 in 4.0 mi South 27.6 mph 43.7 mph 0.03 in Rain Light Rain
5:49 PM 46.4 °F 36.9 °F 39.2 °F 76% 29.58 in 5.0 mi South 32.2 mph 48.3 mph 0.03 in Rain Light Rain
6:01 PM 46.0 °F 37.0 °F 39.9 °F 79% 29.86 in 9.0 mi South 27.6 mph 61.0 mph 0.04 in Rain Light Rain
7:01 PM 46.9 °F - 39.9 °F 77% 29.86 in 10.0 mi South 18.4 mph 46.0 mph 0.03 in Rain Light Rain
8:01 PM 46.9 °F - 39.0 °F 74% 29.86 in 10.0 mi South 24.2 mph 35.7 mph 0.00 in Rain Light Rain
9:01 PM 46.9 °F - 39.9 °F 77% 29.83 in 10.0 mi SSE 16.1 mph 27.6 mph 0.00 in Rain Light Rain
10:01 PM 50.0 °F - 41.0 °F 71% 29.81 in 10.0 mi SSE 19.6 mph 32.2 mph 0.00 in   Clear
11:01 PM 48.9 °F - 41.0 °F 74% 29.80 in 10.0 mi SE 10.4 mph 21.9 mph N/A   Clear